This is the latest recevied weather packets stored in our database for station/object W4KUS-10. If no packets are shown the sender has not sent any weather packets the latest 10 day(s).
| Time | Temp. | Humidity | Pressure | Rain* | Wind** | Luminosity | Snow |
|---|---|---|---|---|---|---|---|
| 1777913741 | 24.44° C | 55% | 1017 hPa | 0 mm | - | - | - |
| 1777913441 | 23.89° C | 54% | 1017 hPa | 0 mm | - | - | - |
| 1777913141 | 23.89° C | 52% | 1017 hPa | 0 mm | - | - | - |
| 1777912841 | 23.89° C | 54% | 1017.1 hPa | 0 mm | - | - | - |
| 1777912541 | 24.44° C | 53% | 1017.2 hPa | 0 mm | - | - | - |
| 1777912241 | 24.44° C | 52% | 1017.2 hPa | 0 mm | - | - | - |
| 1777911941 | 25° C | 53% | 1017.2 hPa | 0 mm | - | - | - |
| 1777911641 | 24.44° C | 55% | 1017.2 hPa | 0 mm | - | - | - |
| 1777911341 | 24.44° C | 53% | 1017.2 hPa | 0 mm | - | - | - |
| 1777911041 | 24.44° C | 53% | 1017.3 hPa | 0 mm | - | - | - |
| 1777910741 | 23.89° C | 54% | 1017.3 hPa | 0 mm | - | - | - |
| 1777910441 | 23.33° C | 55% | 1017.4 hPa | 0 mm | - | - | - |
| 1777910141 | 23.33° C | 55% | 1017.5 hPa | 0 mm | - | - | - |
| 1777909841 | 23.89° C | 53% | 1017.4 hPa | 0 mm | - | - | - |
| 1777909541 | 23.89° C | 53% | 1017.4 hPa | 0 mm | - | - | - |
| 1777909241 | 24.44° C | 50% | 1017.5 hPa | 0 mm | - | - | - |
| 1777908941 | 25° C | 47% | 1017.4 hPa | 0 mm | - | - | - |
| 1777908641 | 24.44° C | 48% | 1017.4 hPa | 0 mm | - | - | - |
| 1777908341 | 24.44° C | 48% | 1017.3 hPa | 0 mm | - | - | - |
| 1777908041 | 23.89° C | 48% | 1017.2 hPa | 0 mm | - | - | - |
| 1777907741 | 23.89° C | 49% | 1017.2 hPa | 0 mm | - | - | - |
| 1777907441 | 23.33° C | 49% | 1017.2 hPa | 0 mm | - | - | - |
| 1777907141 | 23.33° C | 47% | 1017.1 hPa | 0 mm | - | - | - |
| 1777906841 | 23.89° C | 48% | 1017.1 hPa | 0 mm | - | - | - |
| 1777906541 | 23.33° C | 49% | 1017 hPa | 0 mm | - | - | - |
* Rain latest hour (hover to see other rain measurements)
** Current wind speed in m/s (hover to see current wind gust speed)